User: anonymous   Login
Location: Unspecified
(0.0000°N, 0.0000°E)
Time: 02:51:02
(UTC+00:00)
Language:

Himawari 4 - Orbit

View from above orbital plane
View from above orbital plane
View from above satellite
View from above satellite

Ground track
Ground track

The orbit data is extracted from the following two-line orbital elements,

1 20217U 89070A   17232.44471507 -.00000115  00000-0  00000+0 0  9990
2 20217  15.7646  13.1906 0043324  65.7272 269.0868  0.97411467101132
Epoch (UTC): 20 August 2017 10:40:23
Eccentricity: 0.0043324
inclination: 15.7646°
perigee height: 36421 km
apogee height: 36794 km
right ascension of ascending node: 13.1906°
argument of perigee: 65.7272°
revolutions per day: 0.97411467
mean anomaly at epoch: 269.0868°
orbit number at epoch: 10113

The dashed part of the orbit path shows where the satellite is in the earth's shadow,  

DLR